Wind_Speed
10 10 10 11 11 11 11 10 11 12 12 12 13 14 14 14 14 15 15 16 16 16 17 17 18 19 19 20 20 21 22 22 22 22 23 23 23 24
11 11 11 12 12 12 12 12 12 13 13 13 14 15 15 15 15 15 16 17 17 18 18 18 19 20 20 21 21 22 23 23 23 23 24 24 24 24
12 12 13 13 13 12 12 13 14 14 14 14 15 16 16 16 16 16 17 17 17 18 18 19 20 21 21 22 23 24 24 25 25 25 25 26 26 27
13 13 13 14 14 14 14 14 15 15 15 15 15 16 16 17 17 17 17 17 17 18 19 19 20 21 22 23 24 25 25 26 26 26 27 27 28 28
14 14 14 15 15 15 15 15 15 16 16 16 16 17 17 17 17 17 18 18 18 19 19 20 21 22 23 24 25 26 26 26 27 28 28 28 29 30
15 15 15 16 16 16 15 15 16 17 17 17 18 18 18 18 18 18 19 19 19 20 21 22 23 24 25 25 26 27 27 27 28 29 30 30 31 32
16 16 16 17 17 16 16 16 17 17 18 18 18 18 18 18 19 19 20 21 21 22 23 24 25 26 26 27 28 28 29 29 30 31 32 33 33 34
17 17 17 18 18 18 18 18 18 18 18 19 19 19 19 20 20 21 22 23 23 24 25 26 26 27 28 29 30 30 31 32 32 33 34 34 34 35
19 19 19 19 19 18 18 18 18 19 19 19 19 20 20 21 22 23 24 24 25 26 27 27 28 29 30 31 32 32 33 34 34 35 35 35 35 36
19 19 19 19 18 18 19 20 20 20 21 21 22 21 21 22 23 24 24 25 26 27 28 29 30 31 32 32 33 34 35 36 36 36 36 36 37 37
20 20 19 19 19 19 20 20 21 22 22 22 22 23 23 24 24 25 25 26 27 28 30 30 31 32 33 34 35 36 37 37 37 37 37 37 38 38
21 21 20 21 21 21 21 21 22 22 23 23 24 25 25 26 27 27 28 28 29 30 31 32 33 34 34 36 37 37 37 37 37 38 38 39 40 40
21 21 22 22 22 22 23 23 23 24 24 25 26 26 27 28 29 29 29 30 30 31 32 33 34 35 36 36 37 37 38 38 39 39 40 40 40 40
22 22 23 23 23 23 23 23 23 24 25 26 27 27 27 28 28 29 30 31 31 32 33 34 35 36 36 36 36 37 38 39 40 40 40 41 41 40
22 23 23 23 24 23 23 24 25 25 26 26 26 27 28 29 29 30 31 32 33 33 34 35 36 36 37 37 37 38 39 40 41 41 41 41 40 40
22 23 23 24 24 25 26 26 26 26 26 27 28 29 29 30 30 31 32 33 34 34 35 36 36 37 38 38 39 40 41 41 41 41 42 42 42 41
24 24 24 25 25 26 26 27 28 28 28 29 29 29 30 31 31 32 32 33 35 35 36 36 37 39 39 40 40 41 42 42 43 43 43 43 43 43
25 25 26 26 27 27 28 28 28 29 29 30 30 30 30 31 32 33 33 34 35 36 36 37 38 39 40 40 41 42 42 43 44 44 44 44 44 44
26 25 26 27 27 28 28 29 29 29 30 30 30 30 31 32 33 34 35 36 36 37 38 39 40 41 41 42 42 44 44 44 44 44 45 45 45 45
27 27 27 27 28 28 29 29 29 29 30 31 31 32 33 34 34 35 36 38 38 39 39 41 42 42 43 44 44 44 45 45 44 44 45 45 46 46
27 27 27 28 28 28 29 29 30 31 31 32 32 33 34 35 36 37 38 39 39 39 40 41 42 43 44 45 45 45 45 45 45 45 45 46 46 46
28 28 29 30 29 30 30 30 31 32 32 33 33 34 35 36 37 38 39 40 40 41 42 42 43 44 45 45 45 45 45 46 46 46 46 46 46 45
29 29 30 30 30 30 30 31 32 33 33 34 35 36 36 37 38 39 40 41 41 42 42 43 44 45 45 45 45 45 45 45 45 45 45 46 46 46
Wind_Direction
272 277 282 285 288 291 289 286 288 291 289 293 296 297 297 295 293 292 291 290 291 292 293 295 296 296 296 296 296 299 300 299 298 298 297 296 295 293
274 278 282 284 286 288 289 291 291 291 294 296 296 297 298 296 294 293 292 292 292 293 293 294 296 297 297 297 298 299 299 299 297 297 296 295 294 293
276 278 281 285 286 288 289 291 293 293 294 295 297 300 300 298 298 297 295 293 293 294 295 296 296 297 297 298 300 300 299 298 298 297 297 295 294 293
274 277 281 284 286 287 288 289 292 293 295 297 299 301 301 300 300 298 297 295 295 296 297 298 298 298 298 299 301 301 300 299 299 298 297 296 295 294
272 276 280 283 284 285 286 287 290 292 294 295 297 298 299 299 299 298 297 296 296 297 299 300 301 301 301 301 304 304 302 301 301 301 299 297 296 295
272 275 279 282 285 287 287 288 290 291 293 294 295 296 297 299 299 299 297 296 297 297 299 300 301 302 302 303 305 305 303 302 302 302 301 298 297 297
271 274 278 282 285 287 288 289 291 293 294 296 296 295 296 298 300 299 298 298 298 297 298 299 301 302 303 304 305 305 304 303 302 302 302 301 300 298
273 275 277 279 281 284 286 289 292 294 296 297 296 295 294 295 297 298 299 299 298 297 298 299 301 302 303 304 305 305 304 303 303 303 303 302 301 301
274 275 277 281 281 282 283 287 291 294 297 298 297 296 295 296 296 298 299 298 298 298 298 299 300 302 303 303 304 305 305 304 303 304 303 302 301 301
275 275 277 278 280 282 283 287 289 292 294 294 295 295 294 294 296 298 298 299 299 299 299 300 301 303 304 304 305 306 306 305 304 304 303 303 302 301
274 275 277 278 280 281 283 287 290 291 291 292 294 294 295 295 296 298 298 299 300 301 301 301 301 302 304 304 304 305 306 306 305 304 303 303 302 302
275 276 278 280 281 283 285 287 289 291 290 290 291 293 294 295 296 297 297 298 299 301 301 301 302 302 303 304 305 305 305 306 306 305 304 304 303 303
276 276 278 279 279 281 284 286 288 290 292 292 292 292 294 295 296 297 298 299 300 301 301 302 302 304 305 305 305 305 305 306 306 306 306 305 304 303
276 275 277 278 280 281 282 284 288 291 293 295 294 294 294 295 296 298 299 300 301 303 303 303 304 304 305 305 306 306 306 306 307 306 306 306 305 304
274 275 276 277 280 282 283 285 288 290 292 294 296 296 296 296 296 297 298 300 301 303 304 305 305 305 305 305 306 306 306 307 307 307 307 306 305 304
274 275 277 278 280 281 283 286 289 291 292 294 295 296 297 297 297 298 300 301 302 304 304 305 306 306 305 305 306 307 307 308 307 307 308 307 305 304
275 275 277 279 280 282 284 286 288 290 292 294 295 295 296 298 298 298 300 301 303 304 304 305 306 305 305 306 307 307 307 307 307 307 308 307 306 304
277 277 278 280 282 283 285 286 288 290 292 294 295 296 297 298 298 299 300 302 303 305 305 305 306 306 306 306 307 306 306 307 307 307 307 307 306 305
278 278 279 281 283 284 285 286 288 291 293 295 296 297 297 298 298 299 301 303 303 304 305 305 306 307 307 307 307 307 307 307 307 307 307 306 306 306
277 277 279 281 283 285 286 288 289 291 292 294 295 297 298 299 298 299 301 302 303 303 304 305 306 307 308 308 308 308 308 308 307 307 307 307 307 307
278 278 279 282 284 286 287 288 288 290 292 294 295 297 298 298 299 300 301 302 303 303 304 305 307 307 307 308 309 309 309 308 307 307 307 307 307 307
278 279 281 281 282 284 286 287 288 289 290 292 294 296 298 298 299 300 301 302 303 304 305 306 307 307 308 308 309 309 309 309 308 308 307 308 308 308
278 280 280 281 282 284 286 287 288 289 291 293 294 295 296 298 299 300 301 301 302 304 306 307 307 308 308 308 309 309 310 310 309 309 309 309 309 310
Height
5842 5842 5842 5841 5840 5840 5839 5839 5839 5838 5837 5836 5835 5834 5833 5832 5831 5829 5828 5827 5826 5824 5823 5822 5820 5819 5817 5815 5813 5811 5809 5807 5804 5802 5800 5798 5796 5794
5839 5839 5839 5838 5838 5837 5836 5836 5835 5835 5834 5833 5832 5830 5829 5828 5826 5825 5824 5822 5821 5820 5818 5817 5815 5814 5812 5810 5808 5806 5803 5801 5799 5796 5794 5792 5790 5788
5836 5836 5836 5835 5834 5834 5833 5833 5832 5831 5830 5829 5828 5827 5825 5824 5822 5820 5819 5817 5816 5815 5813 5812 5810 5809 5807 5805 5803 5800 5797 5795 5793 5790 5788 5786 5784 5782
5833 5833 5832 5832 5831 5830 5830 5829 5828 5827 5827 5825 5824 5823 5821 5820 5818 5816 5814 5813 5812 5810 5809 5807 5805 5804 5801 5799 5797 5794 5791 5789 5786 5784 5782 5779 5777 5774
5829 5829 5829 5828 5827 5827 5826 5825 5824 5823 5822 5821 5820 5819 5817 5815 5814 5812 5810 5809 5807 5806 5804 5802 5800 5798 5796 5793 5791 5788 5785 5782 5779 5777 5774 5771 5769 5766
5825 5825 5824 5824 5823 5822 5822 5821 5820 5819 5818 5817 5815 5814 5812 5811 5809 5807 5806 5804 5802 5801 5799 5797 5795 5792 5790 5787 5784 5781 5778 5775 5772 5769 5766 5763 5760 5757
5821 5821 5820 5819 5819 5818 5817 5817 5816 5815 5813 5812 5811 5809 5807 5806 5804 5803 5801 5799 5797 5795 5793 5791 5789 5786 5783 5781 5777 5774 5770 5767 5764 5761 5757 5754 5750 5747
5816 5816 5815 5815 5814 5813 5813 5812 5811 5810 5809 5807 5805 5804 5803 5801 5799 5798 5796 5794 5792 5790 5787 5785 5782 5780 5776 5774 5770 5766 5763 5759 5755 5752 5748 5744 5740 5737
5811 5811 5811 5810 5809 5808 5808 5807 5806 5804 5803 5802 5800 5799 5798 5796 5794 5792 5790 5788 5786 5783 5780 5778 5775 5772 5769 5766 5762 5758 5754 5750 5746 5742 5738 5734 5730 5726
5806 5806 5805 5805 5804 5803 5803 5802 5801 5799 5798 5797 5795 5794 5792 5790 5788 5786 5784 5781 5779 5776 5773 5771 5768 5765 5761 5757 5753 5749 5745 5741 5737 5732 5728 5724 5720 5716
5800 5800 5800 5799 5799 5798 5797 5796 5795 5793 5792 5791 5789 5788 5786 5784 5781 5779 5777 5775 5772 5769 5766 5763 5760 5756 5752 5749 5744 5740 5736 5731 5727 5722 5718 5714 5710 5705
5794 5794 5794 5793 5793 5792 5791 5790 5789 5787 5786 5784 5783 5781 5779 5777 5775 5772 5770 5768 5765 5762 5759 5755 5752 5748 5744 5740 5735 5730 5726 5721 5717 5712 5708 5704 5699 5694
5787 5787 5787 5787 5787 5786 5785 5784 5782 5781 5779 5777 5776 5774 5772 5770 5768 5765 5762 5760 5757 5754 5750 5747 5743 5738 5734 5730 5726 5721 5716 5711 5707 5702 5697 5693 5688 5684
5780 5780 5780 5780 5780 5779 5778 5777 5776 5774 5772 5771 5769 5767 5765 5762 5760 5757 5755 5752 5749 5745 5741 5737 5734 5729 5725 5721 5716 5712 5707 5702 5697 5692 5687 5682 5677 5672
5774 5774 5774 5773 5773 5772 5771 5770 5769 5767 5766 5764 5762 5759 5757 5755 5752 5749 5746 5743 5740 5736 5732 5728 5724 5719 5715 5711 5707 5702 5697 5692 5687 5681 5676 5671 5666 5661
5767 5767 5767 5767 5766 5766 5765 5763 5762 5760 5758 5757 5754 5752 5749 5747 5744 5741 5738 5734 5731 5727 5723 5719 5714 5710 5705 5701 5697 5692 5687 5682 5676 5671 5665 5660 5655 5650
5760 5760 5760 5760 5759 5758 5757 5756 5754 5752 5751 5749 5746 5744 5741 5738 5735 5732 5729 5726 5722 5718 5714 5709 5704 5700 5695 5691 5687 5681 5676 5670 5665 5659 5654 5649 5643 5638
5753 5753 5752 5752 5751 5750 5749 5748 5746 5744 5742 5740 5738 5735 5733 5730 5727 5724 5720 5716 5713 5709 5705 5700 5695 5690 5685 5681 5676 5671 5665 5659 5653 5647 5642 5637 5631 5625
5745 5745 5745 5744 5743 5742 5741 5740 5738 5736 5734 5732 5729 5726 5724 5721 5718 5715 5711 5707 5703 5699 5695 5690 5685 5680 5675 5670 5665 5659 5653 5648 5641 5635 5629 5624 5619 5613
5738 5737 5737 5736 5735 5734 5732 5731 5729 5727 5725 5723 5720 5718 5715 5712 5708 5705 5701 5697 5693 5689 5684 5679 5674 5669 5663 5658 5653 5648 5641 5635 5629 5624 5618 5612 5606 5600
5730 5729 5728 5727 5726 5725 5723 5722 5720 5718 5716 5714 5711 5708 5705 5702 5699 5695 5691 5687 5683 5678 5673 5669 5663 5657 5651 5646 5641 5636 5629 5622 5616 5611 5605 5600 5595 5589
5721 5720 5719 5719 5717 5716 5714 5712 5710 5709 5706 5704 5701 5699 5695 5692 5688 5685 5680 5676 5672 5667 5662 5657 5651 5645 5639 5634 5628 5623 5617 5610 5603 5597 5591 5586 5580 5575
5712 5711 5710 5709 5708 5706 5704 5703 5701 5699 5696 5694 5691 5688 5685 5681 5678 5674 5669 5665 5660 5656 5650 5645 5640 5634 5628 5622 5616 5610 5605 5598 5592 5586 5580 5573 5568 5562